| time (UTC) | temp C | wind direction | speed KPH | gust KPH | rain 1hr cm | rain 24hr cm | rain mn cm | humidity % | barometer mb |
| 20260510120155 | 10 | 84 | 0.0 | 0.0 | 0.00 | 0.00 | 0.00 | 98 | 1021.3 |
| 20260510115155 | 10 | 74 | 0.0 | 0.0 | 0.00 | 0.00 | 0.00 | 98 | 1021.2 |
| 20260510114153 | 10 | 79 | 0.0 | 0.0 | 0.00 | 0.00 | 0.00 | 98 | 1020.9 |
| 20260510113152 | 10 | 79 | 0.0 | 0.0 | 0.00 | 0.00 | 0.00 | 98 | 1021.2 |
| 20260510112151 | 10 | 79 | 0.0 | 0.0 | 0.00 | 0.00 | 0.00 | 98 | 1021.1 |
| 20260510111150 | 10 | 75 | 0.0 | 0.0 | 0.00 | 0.00 | 0.00 | 98 | 1020.8 |
| 20260510110149 | 10 | 76 | 0.0 | 0.0 | 0.00 | 0.00 | 0.00 | 98 | 1020.6 |
| 20260510105143 | 9 | 76 | 0.0 | 0.0 | 0.00 | 0.00 | 0.00 | 98 | 1020.5 |
| 20260510104143 | 9 | 77 | 0.0 | 0.0 | 0.00 | 0.00 | 0.00 | 98 | 1020.5 |
| 20260510103142 | 9 | 87 | 0.0 | 1.6 | 0.00 | 0.00 | 0.00 | 98 | 1020.4 |
| 20260510102139 | 9 | 64 | 0.0 | 0.0 | 0.00 | 0.00 | 0.00 | 98 | 1020.3 |
| 20260510101135 | 9 | 62 | 0.0 | 0.0 | 0.00 | 0.00 | 0.00 | 98 | 1020.4 |
| 20260510100133 | 9 | 62 | 0.0 | 0.0 | 0.00 | 0.00 | 0.00 | 98 | 1020.3 |
| 20260510095130 | 9 | 65 | 0.0 | 0.0 | 0.00 | 0.00 | 0.00 | 98 | 1020.1 |
| 20260510094130 | 9 | 63 | 0.0 | 0.0 | 0.00 | 0.00 | 0.00 | 98 | 1020.2 |
| 20260510093129 | 9 | 57 | 0.0 | 1.6 | 0.00 | 0.00 | 0.00 | 98 | 1020.2 |
| 20260510092127 | 9 | 63 | 0.0 | 0.0 | 0.00 | 0.00 | 0.00 | 98 | 1019.6 |
| 20260510091125 | 9 | 80 | 0.0 | 0.0 | 0.00 | 0.00 | 0.00 | 98 | 1019.9 |
| 20260510090124 | 9 | 75 | 0.0 | 1.6 | 0.00 | 0.00 | 0.00 | 98 | 1019.7 |
| 20260510085120 | 9 | 83 | 0.0 | 1.6 | 0.00 | 0.00 | 0.00 | 98 | 1019.4 |
| 20260510084120 | 9 | 144 | 3.2 | 3.2 | 0.00 | 0.00 | 0.00 | 98 | 1019.8 |
| 20260510083119 | 9 | 77 | 0.0 | 0.0 | 0.00 | 0.00 | 0.00 | 98 | 1020.0 |
| 20260510082117 | 9 | 64 | 0.0 | 0.0 | 0.00 | 0.00 | 0.00 | 98 | 1019.8 |
| 20260510081113 | 9 | 62 | 0.0 | 1.6 | 0.00 | 0.00 | 0.00 | 97 | 1019.9 |
| 20260510080110 | 10 | 78 | 0.0 | 1.6 | 0.00 | 0.00 | 0.00 | 98 | 1020.2 |
| 20260510075110 | 10 | 334 | 1.6 | 3.2 | 0.00 | 0.00 | 0.00 | 98 | 1020.3 |
| 20260510074108 | 10 | 63 | 0.0 | 0.0 | 0.00 | 0.00 | 0.00 | 98 | 1020.4 |
| 20260510073108 | 10 | 43 | 0.0 | 0.0 | 0.00 | 0.00 | 0.00 | 98 | 1020.3 |
| 20260510072106 | 10 | 103 | 0.0 | 3.2 | 0.00 | 0.00 | 0.00 | 98 | 1020.5 |
| 20260510071106 | 10 | 75 | 0.0 | 1.6 | 0.00 | 0.00 | 0.00 | 98 | 1020.6 |
| 20260510070106 | 10 | 74 | 0.0 | 1.6 | 0.00 | 0.00 | 0.00 | 98 | 1020.7 |
| 20260510065104 | 10 | 69 | 0.0 | 1.6 | 0.00 | 0.00 | 0.00 | 98 | 1020.5 |
| 20260510064103 | 10 | 101 | 1.6 | 1.6 | 0.00 | 0.00 | 0.00 | 98 | 1020.6 |
| 20260510063103 | 10 | 72 | 0.0 | 0.0 | 0.00 | 0.00 | 0.00 | 98 | 1020.3 |
| 20260510062100 | 10 | 72 | 0.0 | 1.6 | 0.00 | 0.00 | 0.00 | 98 | 1020.3 |
| 20260510061100 | 10 | 65 | 0.0 | 0.0 | 0.00 | 0.00 | 0.00 | 98 | 1019.9 |
| 20260510060058 | 10 | 76 | 0.0 | 0.0 | 0.00 | 0.00 | 0.00 | 98 | 1020.1 |
| 20260510055058 | 10 | 72 | 0.0 | 0.0 | 0.00 | 0.00 | 0.00 | 98 | 1020.1 |
| 20260510054055 | 10 | 74 | 0.0 | 0.0 | 0.00 | 0.00 | 0.00 | 98 | 1020.1 |
| 20260510053052 | 10 | 84 | 0.0 | 0.0 | 0.00 | 0.00 | 0.00 | 98 | 1020.2 |
| 20260510052050 | 10 | 63 | 0.0 | 0.0 | 0.00 | 0.00 | 0.00 | 98 | 1020.1 |
| 20260510051048 | 10 | 75 | 0.0 | 0.0 | 0.00 | 0.00 | 0.00 | 98 | 1020.0 |
| 20260510050048 | 10 | 89 | 0.0 | 3.2 | 0.00 | 0.00 | 0.00 | 98 | 1019.9 |
| 20260510045047 | 9 | 86 | 0.0 | 0.0 | 0.00 | 0.00 | 0.00 | 98 | 1020.1 |
| 20260510044042 | 9 | 86 | 0.0 | 0.0 | 0.00 | 0.00 | 0.00 | 98 | 1019.8 |
| 20260510043039 | 9 | 78 | 0.0 | 0.0 | 0.00 | 0.00 | 0.00 | 98 | 1019.8 |
| 20260510042033 | 9 | 77 | 0.0 | 0.0 | 0.00 | 0.00 | 0.00 | 98 | 1019.8 |
| 20260510041028 | 9 | 78 | 0.0 | 0.0 | 0.00 | 0.00 | 0.00 | 98 | 1019.8 |
| 20260510040026 | 9 | 66 | 0.0 | 1.6 | 0.00 | 0.99 | 0.99 | 98 | 1019.5 |
| 20260510035022 | 8 | 66 | 0.0 | 0.0 | 0.00 | 0.99 | 0.99 | 97 | 1019.8 |
| 20260510034017 | 9 | 66 | 0.0 | 0.0 | 0.00 | 0.99 | 0.99 | 97 | 1019.7 |
| 20260510033018 | 9 | 66 | 0.0 | 0.0 | 0.00 | 0.99 | 0.99 | 97 | 1019.6 |
| 20260510032014 | 9 | 66 | 0.0 | 0.0 | 0.00 | 0.99 | 0.99 | 97 | 1019.6 |
| 20260510031011 | 9 | 65 | 0.0 | 0.0 | 0.00 | 0.99 | 0.99 | 97 | 1019.8 |
| 20260510030010 | 9 | 64 | 0.0 | 0.0 | 0.00 | 0.99 | 0.99 | 97 | 1019.9 |
| 20260510025005 | 10 | 64 | 0.0 | 0.0 | 0.00 | 0.99 | 0.99 | 97 | 1019.7 |
| 20260510024003 | 10 | 64 | 0.0 | 0.0 | 0.00 | 0.99 | 0.99 | 97 | 1019.9 |
| 20260510023003 | 10 | 64 | 0.0 | 0.0 | 0.00 | 0.99 | 0.99 | 97 | 1020.0 |
| 20260510022001 | 10 | 64 | 0.0 | 0.0 | 0.00 | 0.99 | 0.99 | 97 | 1019.7 |
| 20260510021001 | 10 | 68 | 0.0 | 0.0 | 0.00 | 0.99 | 0.99 | 97 | 1019.7 |
| 20260510015958 | 10 | 67 | 0.0 | 0.0 | 0.00 | 0.99 | 0.99 | 96 | 1019.5 |
| 20260510014955 | 10 | 67 | 0.0 | 0.0 | 0.00 | 0.99 | 0.99 | 96 | 1019.5 |
| 20260510013955 | 10 | 65 | 0.0 | 0.0 | 0.00 | 0.99 | 0.99 | 96 | 1019.7 |
| 20260510012952 | 10 | 65 | 0.0 | 0.0 | 0.00 | 0.99 | 0.99 | 96 | 1019.8 |
| 20260510011948 | 11 | 65 | 0.0 | 0.0 | 0.00 | 0.99 | 0.99 | 96 | 1019.5 |
| 20260510010945 | 11 | 72 | 0.0 | 0.0 | 0.00 | 0.99 | 0.99 | 96 | 1019.4 |
| 20260510005945 | 11 | 72 | 0.0 | 0.0 | 0.00 | 0.99 | 0.99 | 96 | 1019.3 |
| 20260510004944 | 11 | 72 | 0.0 | 0.0 | 0.00 | 0.99 | 0.99 | 96 | 1019.2 |
| 20260510003939 | 11 | 72 | 0.0 | 0.0 | 0.00 | 0.99 | 0.99 | 96 | 1019.0 |
| 20260510002936 | 11 | 71 | 0.0 | 0.0 | 0.00 | 0.99 | 0.99 | 96 | 1019.0 |
| 20260510001935 | 11 | 81 | 0.0 | 0.0 | 0.00 | 0.99 | 0.99 | 95 | 1018.9 |
| 20260510000930 | 11 | 68 | 0.0 | 1.6 | 0.00 | 0.99 | 0.99 | 95 | 1018.7 |
| 20260509235928 | 11 | 69 | 0.0 | 0.0 | 0.00 | 0.99 | 0.99 | 94 | 1018.5 |
| 20260509234927 | 11 | 69 | 0.0 | 0.0 | 0.00 | 0.99 | 0.99 | 94 | 1018.4 |
| 20260509233923 | 11 | 70 | 0.0 | 0.0 | 0.00 | 0.99 | 0.99 | 93 | 1018.3 |
| 20260509232921 | 12 | 69 | 0.0 | 0.0 | 0.00 | 0.99 | 0.99 | 93 | 1018.3 |
| 20260509231921 | 12 | 68 | 0.0 | 0.0 | 0.00 | 0.99 | 0.99 | 93 | 1018.5 |
| 20260509230916 | 12 | 70 | 0.0 | 0.0 | 0.00 | 0.99 | 0.99 | 92 | 1018.6 |
| 20260509225914 | 12 | 65 | 0.0 | 1.6 | 0.00 | 0.99 | 0.99 | 92 | 1018.6 |
| 20260509224913 | 12 | 59 | 0.0 | 1.6 | 0.00 | 0.99 | 0.99 | 92 | 1018.5 |
| 20260509223911 | 13 | 90 | 1.6 | 3.2 | 0.00 | 0.99 | 0.99 | 91 | 1018.5 |
| 20260509222911 | 13 | 224 | 4.8 | 4.8 | 0.00 | 0.99 | 0.99 | 92 | 1018.3 |
| 20260509221907 | 13 | 87 | 0.0 | 3.2 | 0.00 | 0.99 | 0.99 | 93 | 1018.2 |
| 20260509220906 | 12 | 129 | 3.2 | 6.4 | 0.00 | 0.99 | 0.99 | 94 | 1018.4 |
| 20260509215904 | 12 | 96 | 0.0 | 1.6 | 0.00 | 0.99 | 0.99 | 94 | 1018.3 |
| 20260509214904 | 12 | 82 | 0.0 | 1.6 | 0.00 | 0.99 | 0.99 | 94 | 1018.7 |
| 20260509213858 | 12 | 125 | 1.6 | 1.6 | 0.00 | 0.99 | 0.99 | 93 | 1018.5 |
| 20260509212857 | 12 | 79 | 0.0 | 1.6 | 0.00 | 0.99 | 0.99 | 93 | 1018.8 |
| 20260509211856 | 12 | 86 | 1.6 | 3.2 | 0.00 | 0.99 | 0.99 | 93 | 1018.7 |
| 20260509210854 | 12 | 98 | 0.0 | 1.6 | 0.13 | 0.99 | 0.99 | 93 | 1018.7 |
| 20260509205851 | 12 | 80 | 0.0 | 1.6 | 0.00 | 0.97 | 0.97 | 94 | 1018.8 |
| 20260509204849 | 12 | 82 | 1.6 | 3.2 | 0.00 | 0.97 | 0.97 | 94 | 1019.0 |
| 20260509203847 | 12 | 94 | 0.0 | 1.6 | 0.00 | 0.97 | 0.97 | 95 | 1019.1 |
| 20260509202846 | 11 | 82 | 0.0 | 0.0 | 0.30 | 0.97 | 0.97 | 94 | 1019.0 |
| 20260509201843 | 11 | 208 | 3.2 | 3.2 | 0.18 | 0.91 | 0.91 | 94 | 1019.5 |
| 20260509200841 | 11 | 83 | 3.2 | 3.2 | 0.30 | 0.89 | 0.89 | 93 | 1019.4 |
| 20260509195839 | 11 | 139 | 3.2 | 4.8 | 0.30 | 0.84 | 0.84 | 93 | 1019.5 |
| 20260509194839 | 11 | 47 | 1.6 | 4.8 | 0.30 | 0.79 | 0.79 | 92 | 1019.7 |
| 20260509193838 | 11 | 95 | 1.6 | 4.8 | 0.30 | 0.74 | 0.74 | 92 | 1019.8 |
| 20260509192834 | 11 | 66 | 0.0 | 12.9 | 0.30 | 0.69 | 0.69 | 93 | 1020.0 |
| 20260509191831 | 12 | 108 | 1.6 | 4.8 | 0.18 | 0.64 | 0.64 | 94 | 1020.1 |
| 20260509190829 | 11 | 86 | 0.0 | 1.6 | 0.13 | 0.61 | 0.61 | 94 | 1020.1 |
| 20260509185824 | 11 | 85 | 1.6 | 3.2 | 0.30 | 0.58 | 0.58 | 94 | 1020.3 |
| 20260509184824 | 11 | 254 | 3.2 | 6.4 | 0.36 | 0.53 | 0.53 | 94 | 1020.6 |
| 20260509183823 | 11 | 124 | 1.6 | 3.2 | 0.13 | 0.48 | 0.48 | 94 | 1020.6 |
| 20260509182820 | 11 | 136 | 1.6 | 1.6 | 0.18 | 0.46 | 0.46 | 94 | 1020.3 |
| 20260509181820 | 11 | 126 | 1.6 | 3.2 | 0.00 | 0.41 | 0.41 | 94 | 1020.4 |
| 20260509180821 | 11 | 132 | 1.6 | 1.6 | 0.18 | 0.41 | 0.41 | 94 | 1020.3 |
| 20260509175819 | 11 | 82 | 0.0 | 0.0 | 0.13 | 0.38 | 0.38 | 94 | 1020.3 |
| 20260509174818 | 11 | 117 | 1.6 | 3.2 | 0.18 | 0.36 | 0.36 | 94 | 1020.1 |
| 20260509173815 | 11 | 59 | 0.0 | 0.0 | 0.13 | 0.33 | 0.33 | 94 | 1020.3 |
| 20260509172813 | 11 | 56 | 0.0 | 1.6 | 0.18 | 0.30 | 0.30 | 93 | 1020.2 |
| 20260509171812 | 11 | 67 | 0.0 | 0.0 | 0.13 | 0.28 | 0.28 | 93 | 1019.9 |
| 20260509170810 | 11 | 79 | 0.0 | 1.6 | 0.18 | 0.25 | 0.25 | 92 | 1020.0 |
| 20260509165806 | 11 | 77 | 0.0 | 0.0 | 0.00 | 0.23 | 0.23 | 93 | 1020.1 |
| 20260509164803 | 11 | 68 | 0.0 | 1.6 | 0.00 | 0.23 | 0.23 | 93 | 1020.3 |
| 20260509163801 | 11 | 94 | 0.0 | 1.6 | 0.13 | 0.23 | 0.23 | 94 | 1020.3 |
| 20260509162757 | 11 | 54 | 1.6 | 1.6 | 0.00 | 0.20 | 0.20 | 93 | 1020.4 |
| 20260509161753 | 11 | 51 | 1.6 | 1.6 | 0.18 | 0.20 | 0.20 | 92 | 1020.7 |
| 20260509160750 | 11 | 63 | 0.0 | 1.6 | 0.00 | 0.18 | 0.18 | 91 | 1020.8 |
| 20260509155748 | 11 | 74 | 0.0 | 0.0 | 0.18 | 0.18 | 0.18 | 91 | 1021.1 |
| 20260509154746 | 10 | 65 | 0.0 | 1.6 | 0.00 | 0.15 | 0.15 | 91 | 1021.3 |
| 20260509153747 | 11 | 58 | 0.0 | 0.0 | 0.13 | 0.15 | 0.15 | 91 | 1021.5 |
| 20260509152745 | 10 | 75 | 0.0 | 0.0 | 0.18 | 0.13 | 0.13 | 90 | 1021.5 |
| 20260509151745 | 10 | 71 | 0.0 | 0.0 | 0.00 | 0.10 | 0.10 | 90 | 1021.4 |
| 20260509150739 | 10 | 55 | 1.6 | 1.6 | 0.00 | 0.10 | 0.10 | 92 | 1021.3 |
| 20260509145734 | 10 | 50 | 0.0 | 3.2 | 0.00 | 0.10 | 0.10 | 91 | 1020.9 |
| 20260509144731 | 10 | 65 | 0.0 | 1.6 | 0.00 | 0.10 | 0.10 | 90 | 1020.9 |
| 20260509143730 | 10 | 44 | 1.6 | 1.6 | 0.00 | 0.10 | 0.10 | 91 | 1021.2 |
| 20260509142729 | 10 | 45 | 3.2 | 4.8 | 0.00 | 0.10 | 0.10 | 91 | 1021.5 |
| 20260509141727 | 10 | 8 | 3.2 | 4.8 | 0.00 | 0.10 | 0.10 | 90 | 1021.1 |
| 20260509140727 | 9 | 42 | 1.6 | 3.2 | 0.00 | 0.10 | 0.10 | 90 | 1021.4 |
| 20260509135722 | 9 | 92 | 0.0 | 1.6 | 0.00 | 0.10 | 0.10 | 91 | 1021.3 |
| 20260509134722 | 9 | 54 | 1.6 | 1.6 | 0.00 | 0.10 | 0.10 | 91 | 1021.5 |
| 20260509133717 | 8 | 57 | 0.0 | 1.6 | 0.00 | 0.10 | 0.10 | 90 | 1021.6 |
| 20260509132712 | 8 | 56 | 0.0 | 0.0 | 0.00 | 0.10 | 0.10 | 91 | 1021.5 |
| 20260509131712 | 8 | 75 | 0.0 | 0.0 | 0.00 | 0.10 | 0.10 | 91 | 1021.5 |
| 20260509130711 | 8 | 76 | 0.0 | 0.0 | 0.00 | 0.10 | 0.10 | 91 | 1021.8 |
| 20260509125709 | 8 | 72 | 0.0 | 0.0 | 0.00 | 0.10 | 0.10 | 92 | 1021.5 |
| 20260509124708 | 7 | 82 | 0.0 | 0.0 | 0.00 | 0.10 | 0.10 | 92 | 1021.4 |
| 20260509123704 | 7 | 57 | 0.0 | 1.6 | 0.00 | 0.10 | 0.10 | 92 | 1021.2 |
| 20260509122702 | 7 | 56 | 0.0 | 1.6 | 0.00 | 0.10 | 0.10 | 92 | 1021.2 |
| 20260509121701 | 7 | 56 | 0.0 | 0.0 | 0.00 | 0.10 | 0.10 | 92 | 1021.4 |
| 20260509120657 | 7 | 55 | 0.0 | 0.0 | 0.00 | 0.10 | 0.10 | 92 | 1021.6 |